Weather History for Cape Girardeau, MO

Change the Weather History Date:

Thursday, May 23, 2013

  Actual Average Record
Temperature  
Mean Temperature 65 °F 69 °F  
Max Temperature 75 °F 80 °F 93 °F (1970)
Min Temperature 54 °F 58 °F 38 °F (1963)
Degree Days  
Heating Degree Days 0 1  
Month to date heating degree days 83 61  
Since 1 July heating degree days 4349 4379  
Cooling Degree Days 0 5  
Month to date cooling degree days 81 74  
Year to date cooling degree days 106 105  
Growing Degree Days 14 (Base 50)    
Moisture  
Dew Point 54 °F    
Average Humidity 75    
Maximum Humidity 100    
Minimum Humidity 49    
Precipitation  
Precipitation 0.00 in 0.16 in 2.45 in (1966)
Month to date precipitation 2.25 4.26  
Year to date precipitation 15.07 19.90  
Sea Level Pressure  
Sea Level Pressure 30.03 in    
Wind  
Wind Speed 10 mph (NW)    
Max Wind Speed 22 mph    
Max Gust Speed 25 mph    
Visibility 10 miles    
Events      
T = Trace of Precipitation, MM = Missing Value Source: NWS Daily Summary

Daily Weather History Graph

Daily Weather History Graph

Search for Another Location

Airport:

Trip Planner

Search our weather history database for the weather conditions in past years. The results will help you decide how hot, cold, wet, or windy it might be!

Date:

Astronomy

May. 23, 2013 Rise Set
Actual Time 5:43 AM CDT 8:06 PM CDT
Civil Twilight 5:14 AM CDT 8:36 PM CDT
Nautical Twilight 4:37 AM CDT 9:13 PM CDT
Astronomical Twilight 3:57 AM CDT 9:53 PM CDT
Moon 6:40 PM CDT (5/23) 4:26 AM CDT (5/23)
Length of Visible Light 15h 22m
Length of Day
14h 22m
Waxing Gibbous, 97% of the Moon is Illuminated
May 23
Waxing Gibbous
May 24
Full
May 31
Last Quarter
Jun 8
New
Jun 16
First Quarter

Hourly Weather History & Observations

Time (CDT) Temp. Dew Point Humidity Pressure Visibility Wind Dir Wind Speed Gust Speed Precip Events Conditions
12:53 AM 66.9 °F 55.9 °F 68% 29.91 in 10.0 mi NW 6.9 mph - N/A   Overcast
1:53 AM 64.0 °F 55.0 °F 73% 29.91 in 10.0 mi NW 4.6 mph - N/A   Scattered Clouds
2:53 AM 59.0 °F 54.0 °F 83% 29.91 in 10.0 mi West 3.5 mph - N/A   Clear
3:53 AM 57.9 °F 54.0 °F 87% 29.91 in 10.0 mi West 3.5 mph - N/A   Clear
4:53 AM 55.9 °F 53.1 °F 90% 29.92 in 10.0 mi Calm Calm - N/A   Clear
5:53 AM 54.0 °F 53.1 °F 97% 29.95 in 10.0 mi WSW 3.5 mph - N/A   Clear
6:53 AM 59.0 °F 55.9 °F 90% 29.97 in 10.0 mi Calm Calm - N/A   Clear
7:53 AM 63.0 °F 57.0 °F 81% 29.99 in 10.0 mi West 6.9 mph - N/A   Clear
8:53 AM 66.0 °F 55.9 °F 70% 30.00 in 10.0 mi West 8.1 mph - N/A   Mostly Cloudy
9:53 AM 69.1 °F 53.1 °F 57% 29.99 in 10.0 mi NW 11.5 mph - N/A   Scattered Clouds
10:53 AM 69.1 °F 53.1 °F 57% 30.01 in 10.0 mi NNW 11.5 mph - N/A   Overcast
11:53 AM 72.0 °F 55.9 °F 57% 30.04 in 10.0 mi WNW 9.2 mph - N/A   Scattered Clouds
12:53 PM 73.0 °F 53.1 °F 49% 30.02 in 10.0 mi NW 17.3 mph 24.2 mph N/A   Partly Cloudy
1:53 PM 73.9 °F 54.0 °F 50% 30.04 in 10.0 mi NW 13.8 mph 20.7 mph N/A   Scattered Clouds
2:53 PM 73.0 °F 53.1 °F 49% 30.05 in 10.0 mi WNW 13.8 mph 21.9 mph N/A   Overcast
3:53 PM 73.0 °F 54.0 °F 51% 30.05 in 10.0 mi NW 12.7 mph - N/A   Mostly Cloudy
4:53 PM 73.9 °F 55.0 °F 52% 30.06 in 10.0 mi North 16.1 mph - N/A   Scattered Clouds
5:53 PM 72.0 °F 55.0 °F 55% 30.07 in 10.0 mi North 12.7 mph - N/A   Partly Cloudy
6:53 PM 69.1 °F 54.0 °F 58% 30.08 in 10.0 mi North 18.4 mph 25.3 mph N/A   Scattered Clouds
7:53 PM 66.9 °F 55.9 °F 68% 30.12 in 10.0 mi North 19.6 mph 23.0 mph N/A   Mostly Cloudy
8:53 PM 64.0 °F 55.0 °F 73% 30.13 in 10.0 mi North 9.2 mph - N/A   Overcast
9:53 PM 62.1 °F 53.1 °F 72% 30.14 in 10.0 mi NNE 10.4 mph 24.2 mph N/A   Mostly Cloudy
10:02 PM 62.6 °F 53.6 °F 72% 30.15 in 10.0 mi NNE 11.5 mph - N/A   Mostly Cloudy
10:53 PM 61.0 °F 51.1 °F 70% 30.17 in 10.0 mi NNE 12.7 mph - N/A   Scattered Clouds
11:53 PM 59.0 °F 50.0 °F 72% 30.18 in 10.0 mi NNE 11.5 mph - N/A   Clear